Location: Brantley
(31.5822°N, 86.2569°W)
Time: 11:40:53
(UTC+00:00)

Courier 1B Rocket - Pass Details

Date: 18 February 2026
Orbit: 920 x 1201 km, 28.2° (Epoch: 17 March)

Event Time Altitude Azimuth Distance (km) Brightness Sun altitude
Rises 03:51:00 0° 270° (W) 3,601 8.4 -54.4°
Enters shadow 03:51:42 - 269° (W) 3,347 8.2 -54.6°
Reaches altitude 10° 03:53:35 10° 267° (W) 2,683 - -54.9°
Maximum altitude 03:59:58 61° 188° (S) 1,122 - -56.1°
Drops below altitude 10° 04:06:49 10° 109° (ESE) 2,870 - -57.4°
Sets 04:09:41 0° 106° (ESE) 3,870 - -57.9°
